Regional Weather Roundup
Issued by NWS Upton, NY

Current Version | Previous Version | Text Only | Print | Product List | Glossary On
Versions: 1 2 3 4 5 6 7 8 9 10 11 12 13 14 15 16 17 18 19 20 21 22 23 24 25 26 27 28 29 30 31 32 33 34 35 36 37 38 39 40 41 42 43 44 45 46 47 48 49 50
000
ASUS41 KOKX 180105
RWROKX

REGIONAL WEATHER ROUNDUP
NATIONAL WEATHER SERVICE NEW YORK NY
800 PM EST WED DEC 17 2014

NOTE: "FAIR" INDICATES FEW OR NO CLOUDS BELOW 12,000 FEET WITH NO
SIGNIFICANT WEATHER AND/OR OBSTRUCTIONS TO VISIBILITY.

NYZ071-072-176-178-NJZ106-104-180200-
NEW YORK CITY METRO AREA


CITY           SKY/WX    TMP DP  RH WIND       PRES   REMARKS
CENTRAL PARK   CLOUDY    45  35  68 VRB3      29.91R
LAGUARDIA APRT LGT RAIN  45  36  70 NW17      29.88S
KENNEDY INTL   CLOUDY    48  34  58 W12       29.89S
NEWARK/LIBERTY MOCLDY    45  30  55 W14G21    29.90R
BRNX BOT. GARD   N/A     45  34  65 W20       29.89F
TETERBORO      LGT RAIN  45  35  68 NW10      29.88R
$$

NYZ177-179-078>081-180200-
LONG ISLAND NEW YORK

CITY           SKY/WX    TMP DP  RH WIND       PRES   REMARKS
FARMINGDALE    PTCLDY    46  33  60 NW12      29.87S
ISLIP          MOCLDY    45  33  63 W12       29.84S
SHIRLEY        PTCLDY    45  34  65 W8        29.85S
WESTHAMPTON    CLOUDY    46  33  60 W8        29.85R
MONTAUK POINT    N/A     46  41  82 NW10G20   29.82S
$$

NYZ052-065-067-180200-
HUDSON VALLEY

CITY           SKY/WX    TMP DP  RH WIND       PRES   REMARKS
WHITE PLAINS   MOCLDY    42  31  64 NW16      29.85S
NEWBURGH       MOCLDY    39  34  81 W12       29.88S WCI  32
MONTGOMERY     MOCLDY    40  31  70 W7        29.87R
POUGHKEEPSIE   CLOUDY    43  31  62 W9        29.85F
ALBANY         CLOUDY    38  29  70 NW13G23   29.86S WCI  30
$$

NJZ001-105-106-008-010-013-015-019>022-104-180200-
NEW JERSEY

CITY           SKY/WX    TMP DP  RH WIND       PRES   REMARKS
NEWARK/LIBERTY MOCLDY    45  30  55 W14G21    29.90R
TETERBORO      LGT RAIN  45  35  68 NW10      29.88R
CALDWELL       CLOUDY    43  34  70 NW6       29.90R
MORRISTOWN     CLOUDY    48  30  49 NW14G21   29.90R
SOMERVILLE     CLEAR     43  29  57 VRB7      29.90R
SUSSEX         CLOUDY    41  33  73 SW5       29.89R
ANDOVER          N/A     41  29  62 VRB3      29.90R
TRENTON        PTCLDY    42  26  53 W9        29.93R
MILLVILLE      CLEAR     42  28  57 NW12      29.98R
ATLANTIC CITY  CLEAR     42  27  55 W12       29.96R
WRIGHTSTOWN    CLEAR     42  29  59 W9        29.92R
TOMS RIVER     CLEAR     43  28  56 CALM      29.93S
BELMAR         CLEAR     43  27  52 W8        29.92R
$$

PAZ047>061-062-071-180200-
EASTERN PENNSYLVANIA

CITY           SKY/WX    TMP DP  RH WIND       PRES   REMARKS
PHILADELPHIA   PTCLDY    44  26  49 W13       29.98R
ALLENTOWN      CLOUDY    41  25  53 W10G21    29.94R
SCRANTON       CLOUDY    39  25  57 W18G28    29.90S WCI  30
$$

CTZ002-004>006-009-010-012-RIZ004-006-007-MAZ004-011-015-180200-
SOUTHERN NEW ENGLAND
 IN CT

CITY           SKY/WX    TMP DP  RH WIND       PRES   REMARKS
BRADLEY INTL   CLOUDY    42  32  67 NW12G21   29.81S
HARTFORD       LGT RAIN  43  34  70 NW10G21   29.83R
DANBURY        MOCLDY    40  31  70 W6        29.85S
WTRBRY/OXFORD  CLOUDY    41  30  65 NW12G18   29.83
BRIDGEPORT     CLOUDY    45  34  65 W7        29.85R
MERIDEN        CLOUDY    43  35  73 NW7       29.83S
NEW HAVEN      CLOUDY    48  35  60 NW7       29.84R
CHESTER        MOCLDY    43  39  87 NW10      29.81S
GROTON         CLOUDY    44  41  89 NW9       29.79S
WILLIMANTIC    CLOUDY    44  34  67 NW9G23    29.80S

 IN RI

CITY           SKY/WX    TMP DP  RH WIND       PRES   REMARKS
PROVIDENCE     CLOUDY    46  35  65 W14       29.76F
BLOCK ISLAND   CLOUDY    46  39  76 W9G21     29.79R
WESTERLY       MOCLDY    46  39  76 VRB6      29.79S

 IN MA

CITY           SKY/WX    TMP DP  RH WIND       PRES   REMARKS
BOSTON         CLOUDY    45  38  76 W14       29.73
WORCESTER      CLOUDY    38  35  89 W18       29.74R WCI  28
WESTFIELD      CLOUDY    41  30  65 NW14G25   29.81S
PROVINCETOWN   CLOUDY    46  41  81 W13G18    29.71S
NANTUCKET      MOCLDY    47  39  74 W15       29.74S
$$

ANZ330-335-338-340-345-350-353-355-180200-
COASTAL MARINE OBSERVATIONS


STATION/POSITION TIME  SKY/WX   TEMP    WIND        PRES    VSBY  WAVE
                                AIR SEA DIR/SP/G                  HT/PER
                 (UTC)          (F)     (DEG/KT/KT) (MB)    (MI)  (FT/S)
NY HARB ENTRANCE 0100            46 46  280/ 19/ 23 1012.1          3/ 4
4S FIRE IS       0100               46                N/A           3/ 4
20S FIRE ISLAND  0000            47 50              1011.2          4/ 5
23SW MTP         0100                                 N/A           4/ 6
HUDSON CANYON    0100            50 55  290/ 23/ 29 1011.6
EXECUTION ROCKS  0100            45 42  320/ 14/ 17   N/A
WESTERN LI SOUND 0100            45     280/ 12/ 17   N/A           1/ 3
CENTRAL LI SOUND 0000            45 45  290/ 16/ 17   N/A           2/ 4
EASTERN LI SOUND NOT AVBL
ROBBINS REEF     0100            46     300/ 16/ 21 1010.8
$$


>>>>>>>>>>>>>>>>>>>>>>>>>>>> KEY <<<<<<<<<<<<<<<<<<<<<<<<<<<
>                                                          <
>     SKY/WX - SKY CONDITION/PRESENT WEATHER               <
>     TMP    - TEMPERATURE IN FAHRENHEIT                   <
>     DP     - DEWPOINT IN FAHRENHEIT                      <
>     RH     - RELATIVE HUMIDITY IN PERCENT                <
>     WIND   - DIRECTION AND SPEED IN MPH                  <
>     PRES   - MEAN SEA LEVEL PRESSURE IN INCHES OF HG     <
>     WCI    - WIND CHILL INDEX                            <
>     VSB    - VISIBILITY IN MILES                         <
>     HX     - HEAT INDEX                                  <
>     TC     - TEMPERATURE IN CELSIUS                      <
>     VRB    - VARIABLE WIND DIRECTION                     <
>                                                          <
>>>>>>>>>>>>>>>>>>>>>>>>>>>> KEY <<<<<<<<<<<<<<<<<<<<<<<<<<<




USA.gov is the U.S. government's official web portal to all federal, state and local government web resources and services.